UAE5GE OMDB-OBBI

Flight info

Callsign UAE5GE
Flight time 0h 56m
Altitude 26000
Route NABIX P699 ORMID M556 ORDIG
Aircraft B77W/H-SDE1E2E3FGHIJ2J3J4J5M1RWXY/LB1D1

Departure

Time 2026-04-26 23:23
Airport Dubai International Airport (OMDB)

Arrival

Time 2026-04-27 00:19
Airport Bahrain International Airport (OBBI)
Time Latitude Longitude Altitude Speed Heading
2026-04-26 22:53 25.24360 55.36921 27 ft 0 kts 35°
2026-04-26 23:10 25.24358 55.36919 27 ft 2 kts 35°
2026-04-26 23:11 25.24338 55.36905 25 ft 4 kts 30°
2026-04-26 23:11 25.24314 55.36890 26 ft 4 kts 32°
2026-04-26 23:11 25.24301 55.36873 24 ft 4 kts 101°
2026-04-26 23:11 25.24312 55.36846 24 ft 4 kts 121°
2026-04-26 23:12 25.24316 55.36838 25 ft 0 kts 121°
2026-04-26 23:16 25.24315 55.36840 25 ft 1 kts 121°
2026-04-26 23:16 25.24278 55.36905 27 ft 20 kts 122°
2026-04-26 23:17 25.24199 55.37044 27 ft 21 kts 122°
2026-04-26 23:17 25.24122 55.37183 27 ft 23 kts 121°
2026-04-26 23:17 25.24025 55.37361 27 ft 29 kts 121°
2026-04-26 23:17 25.23978 55.37502 27 ft 19 kts 89°
2026-04-26 23:18 25.24053 55.37626 27 ft 22 kts 35°
2026-04-26 23:18 25.24191 55.37722 27 ft 23 kts 31°
2026-04-26 23:18 25.24304 55.37807 27 ft 13 kts 65°
2026-04-26 23:18 25.24271 55.37902 27 ft 14 kts 120°
2026-04-26 23:19 25.24195 55.38037 27 ft 30 kts 122°
2026-04-26 23:19 25.24104 55.38197 27 ft 24 kts 122°
2026-04-26 23:19 25.24015 55.38353 27 ft 24 kts 122°
2026-04-26 23:19 25.23929 55.38513 27 ft 24 kts 120°
2026-04-26 23:20 25.23842 55.38673 27 ft 24 kts 121°
2026-04-26 23:20 25.23748 55.38844 27 ft 27 kts 121°
2026-04-26 23:20 25.23650 55.39020 27 ft 27 kts 121°
2026-04-26 23:20 25.23554 55.39195 27 ft 24 kts 121°
2026-04-26 23:21 25.23510 55.39301 27 ft 14 kts 90°
2026-04-26 23:21 25.23568 55.39385 27 ft 14 kts 35°
2026-04-26 23:21 25.23652 55.39375 27 ft 14 kts 299°
2026-04-26 23:21 25.23668 55.39342 27 ft 0 kts 302°
2026-04-26 23:22 25.23669 55.39342 27 ft 0 kts 302°
2026-04-26 23:22 25.23671 55.39339 27 ft 6 kts 302°
2026-04-26 23:22 25.23837 55.39037 27 ft 100 kts 302°
2026-04-26 23:22 25.24383 55.38018 118 ft 200 kts 300°
2026-04-26 23:23 25.25196 55.36590 1023 ft 227 kts 302°
2026-04-26 23:23 25.25967 55.35162 2913 ft 209 kts 300°
2026-04-26 23:23 25.26756 55.33860 4125 ft 197 kts 304°
2026-04-26 23:23 25.27514 55.32670 5113 ft 190 kts 305°
2026-04-26 23:24 25.28285 55.31456 5876 ft 195 kts 305°
2026-04-26 23:24 25.29026 55.30174 6517 ft 200 kts 290°
2026-04-26 23:24 25.29114 55.28633 7120 ft 208 kts 259°
2026-04-26 23:24 25.28599 55.27109 7786 ft 216 kts 250°
2026-04-26 23:25 25.27951 55.25590 8489 ft 220 kts 249°
2026-04-26 23:25 25.27290 55.24063 9275 ft 221 kts 249°
2026-04-26 23:25 25.26627 55.22522 10041 ft 222 kts 249°
2026-04-26 23:25 25.25956 55.20965 10657 ft 231 kts 248°
2026-04-26 23:26 25.25264 55.19344 11175 ft 241 kts 248°
2026-04-26 23:26 25.24535 55.17636 11846 ft 248 kts 248°
2026-04-26 23:26 25.23905 55.15863 12519 ft 251 kts 259°
2026-04-26 23:26 25.23588 55.13911 12963 ft 271 kts 263°
2026-04-26 23:27 25.23327 55.11738 13190 ft 299 kts 263°
2026-04-26 23:27 25.23043 55.09349 13410 ft 327 kts 263°
2026-04-26 23:27 25.22718 55.06754 13607 ft 354 kts 262°
2026-04-26 23:27 25.22483 55.04944 13876 ft 364 kts 262°
2026-04-26 23:28 25.21981 55.01219 14788 ft 374 kts 262°
2026-04-26 23:28 25.21588 54.98360 15595 ft 378 kts 262°
2026-04-26 23:28 25.21189 54.95467 16453 ft 381 kts 261°
2026-04-26 23:28 25.20861 54.92547 17346 ft 384 kts 264°
2026-04-26 23:29 25.20657 54.89597 18197 ft 387 kts 265°
2026-04-26 23:29 25.20481 54.86623 18929 ft 390 kts 265°
2026-04-26 23:29 25.20291 54.83622 19662 ft 394 kts 265°
2026-04-26 23:29 25.20081 54.80595 20391 ft 397 kts 265°
2026-04-26 23:30 25.19860 54.77545 21117 ft 400 kts 265°
2026-04-26 23:30 25.19751 54.74449 21827 ft 404 kts 271°
2026-04-26 23:30 25.19892 54.71525 22476 ft 407 kts 274°
2026-04-26 23:30 25.20139 54.68301 23685 ft 419 kts 274°
2026-04-26 23:31 25.20385 54.65086 23494 ft 417 kts 274°
2026-04-26 23:31 25.20598 54.61954 24311 ft 413 kts 273°
2026-04-26 23:31 25.20786 54.58773 24847 ft 418 kts 272°
2026-04-26 23:31 25.20964 54.55545 25276 ft 424 kts 272°
2026-04-26 23:32 25.21200 54.52286 25749 ft 428 kts 277°
2026-04-26 23:32 25.21858 54.49074 25828 ft 431 kts 284°
2026-04-26 23:32 25.22746 54.45896 25843 ft 431 kts 285°
2026-04-26 23:32 25.23630 54.42730 25843 ft 431 kts 285°
2026-04-26 23:33 25.24472 54.39574 25845 ft 431 kts 284°
2026-04-26 23:33 25.25282 54.36399 25850 ft 430 kts 284°
2026-04-26 23:33 25.26079 54.33213 25851 ft 429 kts 283°
2026-04-26 23:33 25.26870 54.30036 25847 ft 428 kts 283°
2026-04-26 23:34 25.27660 54.26855 25845 ft 428 kts 283°
2026-04-26 23:34 25.28446 54.23691 25846 ft 427 kts 283°
2026-04-26 23:34 25.29223 54.20563 25846 ft 427 kts 283°
2026-04-26 23:34 25.30011 54.17394 25849 ft 427 kts 283°
2026-04-26 23:35 25.30797 54.14223 25851 ft 427 kts 283°
2026-04-26 23:35 25.31558 54.11036 25850 ft 427 kts 282°
2026-04-26 23:35 25.32245 54.07844 25847 ft 427 kts 281°
2026-04-26 23:35 25.32901 54.04671 25846 ft 427 kts 281°
2026-04-26 23:36 25.33564 54.01465 25852 ft 428 kts 281°
2026-04-26 23:36 25.34233 53.98262 25847 ft 428 kts 281°
2026-04-26 23:36 25.34912 53.95043 25847 ft 428 kts 282°
2026-04-26 23:36 25.35594 53.91831 25852 ft 429 kts 282°
2026-04-26 23:37 25.36275 53.88623 25867 ft 429 kts 281°
2026-04-26 23:37 25.36948 53.85453 25860 ft 429 kts 281°
2026-04-26 23:37 25.37623 53.82245 25858 ft 428 kts 281°
2026-04-26 23:37 25.38294 53.79033 25852 ft 427 kts 281°
2026-04-26 23:38 25.38961 53.75827 25852 ft 426 kts 281°
2026-04-26 23:38 25.39627 53.72626 25848 ft 425 kts 281°
2026-04-26 23:38 25.40288 53.69444 25849 ft 424 kts 281°
2026-04-26 23:38 25.40942 53.66293 25851 ft 424 kts 281°
2026-04-26 23:39 25.41604 53.63108 25849 ft 423 kts 281°
2026-04-26 23:39 25.42263 53.59930 25850 ft 423 kts 281°
2026-04-26 23:39 25.42923 53.56750 25852 ft 423 kts 281°
2026-04-26 23:39 25.43577 53.53611 25856 ft 424 kts 281°
2026-04-26 23:40 25.44243 53.50421 25854 ft 424 kts 281°
2026-04-26 23:40 25.44906 53.47240 25857 ft 424 kts 281°
2026-04-26 23:40 25.45571 53.44044 25853 ft 425 kts 281°
2026-04-26 23:40 25.46226 53.40893 25853 ft 425 kts 281°
2026-04-26 23:41 25.46889 53.37697 25867 ft 425 kts 281°
2026-04-26 23:41 25.47550 53.34504 25864 ft 426 kts 281°
2026-04-26 23:41 25.48211 53.31310 25855 ft 426 kts 281°
2026-04-26 23:41 25.48872 53.28114 25844 ft 426 kts 281°
2026-04-26 23:42 25.49534 53.24911 25860 ft 426 kts 281°
2026-04-26 23:42 25.50852 53.18509 25860 ft 425 kts 281°
2026-04-26 23:42 25.51501 53.15352 25845 ft 425 kts 281°
2026-04-26 23:43 25.52159 53.12147 25858 ft 425 kts 281°
2026-04-26 23:43 25.52814 53.08949 25847 ft 425 kts 281°
2026-04-26 23:43 25.53469 53.05752 25850 ft 425 kts 281°
2026-04-26 23:43 25.54115 53.02596 25853 ft 425 kts 281°
2026-04-26 23:44 25.54767 52.99403 25849 ft 425 kts 281°
2026-04-26 23:44 25.55420 52.96206 25861 ft 425 kts 281°
2026-04-26 23:44 25.56159 52.93030 25851 ft 426 kts 285°
2026-04-26 23:44 25.57162 52.89934 25867 ft 427 kts 289°
2026-04-26 23:45 25.58365 52.86961 25860 ft 429 kts 294°
2026-04-26 23:45 25.59317 52.84999 25864 ft 429 kts 296°
2026-04-26 23:45 25.61215 52.81159 25860 ft 428 kts 296°
2026-04-26 23:45 25.62650 52.78253 25859 ft 428 kts 296°
2026-04-26 23:46 25.64073 52.75355 25858 ft 427 kts 295°
2026-04-26 23:46 25.65492 52.72453 25864 ft 427 kts 295°
2026-04-26 23:46 25.66900 52.69563 25862 ft 427 kts 295°
2026-04-26 23:46 25.68292 52.66699 25868 ft 426 kts 295°
2026-04-26 23:47 25.69700 52.63798 25861 ft 426 kts 295°
2026-04-26 23:47 25.71109 52.60896 25866 ft 426 kts 295°
2026-04-26 23:47 25.72516 52.57994 25863 ft 427 kts 295°
2026-04-26 23:47 25.73924 52.55089 25863 ft 427 kts 295°
2026-04-26 23:48 25.75313 52.52224 25869 ft 427 kts 295°
2026-04-26 23:48 25.76713 52.49318 25866 ft 427 kts 295°
2026-04-26 23:48 25.78088 52.46398 25865 ft 427 kts 294°
2026-04-26 23:48 25.79454 52.43470 25863 ft 427 kts 294°
2026-04-26 23:49 25.80819 52.40539 25862 ft 427 kts 294°
2026-04-26 23:49 25.81724 52.38599 25863 ft 427 kts 294°
2026-04-26 23:49 25.83097 52.35665 25862 ft 427 kts 294°
2026-04-26 23:49 25.84466 52.32739 25862 ft 427 kts 294°
2026-04-26 23:50 25.85864 52.29821 25869 ft 428 kts 297°
2026-04-26 23:50 25.87485 52.27036 25866 ft 430 kts 301°
2026-04-26 23:50 25.89308 52.24380 25870 ft 432 kts 306°
2026-04-26 23:50 25.91309 52.21930 25866 ft 433 kts 308°
2026-04-26 23:51 25.93363 52.19484 25870 ft 433 kts 308°
2026-04-26 23:51 25.95421 52.17030 25866 ft 433 kts 308°
2026-04-26 23:51 25.97466 52.14577 25862 ft 433 kts 308°
2026-04-26 23:51 25.99509 52.12111 25862 ft 432 kts 308°
2026-04-26 23:52 26.01543 52.09650 25860 ft 432 kts 308°
2026-04-26 23:52 26.03550 52.07218 25863 ft 432 kts 308°
2026-04-26 23:52 26.05585 52.04752 25877 ft 432 kts 308°
2026-04-26 23:52 26.07619 52.02286 25869 ft 432 kts 308°
2026-04-26 23:53 26.09652 51.99819 25867 ft 432 kts 308°
2026-04-26 23:53 26.11688 51.97347 25865 ft 432 kts 308°
2026-04-26 23:53 26.13718 51.94880 25865 ft 432 kts 308°
2026-04-26 23:53 26.15753 51.92406 25865 ft 431 kts 308°
2026-04-26 23:54 26.17754 51.89971 25871 ft 431 kts 308°
2026-04-26 23:54 26.19783 51.87503 25870 ft 431 kts 308°
2026-04-26 23:54 26.21800 51.85046 25869 ft 430 kts 308°
2026-04-26 23:54 26.23751 51.82536 25877 ft 427 kts 303°
2026-04-26 23:55 26.25471 51.79843 25878 ft 425 kts 299°
2026-04-26 23:55 26.26982 51.77034 25766 ft 420 kts 294°
2026-04-26 23:55 26.28276 51.74127 25254 ft 416 kts 292°
2026-04-26 23:55 26.29521 51.71259 24644 ft 414 kts 293°
2026-04-26 23:56 26.30790 51.68372 23988 ft 414 kts 293°
2026-04-26 23:56 26.32067 51.65498 23344 ft 413 kts 293°
2026-04-26 23:56 26.33344 51.62632 22662 ft 411 kts 293°
2026-04-26 23:56 26.34610 51.59788 22099 ft 406 kts 293°
2026-04-26 23:57 26.35844 51.57014 21576 ft 401 kts 293°
2026-04-26 23:57 26.37075 51.54242 21102 ft 395 kts 293°
2026-04-26 23:57 26.38195 51.51470 20697 ft 387 kts 288°
2026-04-26 23:57 26.39084 51.48661 20290 ft 381 kts 287°
2026-04-26 23:58 26.39951 51.45883 19888 ft 379 kts 287°
2026-04-26 23:58 26.40826 51.43111 19495 ft 379 kts 287°
2026-04-26 23:58 26.41707 51.40338 19099 ft 379 kts 287°
2026-04-26 23:58 26.42589 51.37566 18704 ft 379 kts 287°
2026-04-26 23:59 26.43478 51.34804 18327 ft 379 kts 288°
2026-04-26 23:59 26.44372 51.32076 17922 ft 379 kts 288°
2026-04-26 23:59 26.45224 51.29311 17467 ft 371 kts 282°
2026-04-26 23:59 26.45436 51.26458 17033 ft 370 kts 266°
2026-04-27 00:00 26.44991 51.23628 16615 ft 371 kts 253°
2026-04-27 00:00 26.44048 51.20944 16204 ft 371 kts 249°
2026-04-27 00:00 26.43031 51.18296 15793 ft 371 kts 248°
2026-04-27 00:00 26.42008 51.15646 15390 ft 371 kts 249°
2026-04-27 00:01 26.40996 51.13001 14986 ft 370 kts 249°
2026-04-27 00:01 26.40007 51.10389 14507 ft 360 kts 249°
2026-04-27 00:01 26.39049 51.07842 13747 ft 355 kts 249°
2026-04-27 00:01 26.38095 51.05287 13038 ft 358 kts 249°
2026-04-27 00:02 26.37143 51.02734 12502 ft 355 kts 250°
2026-04-27 00:02 26.36201 51.00209 12221 ft 347 kts 250°
2026-04-27 00:02 26.35291 50.97772 11985 ft 344 kts 250°
2026-04-27 00:02 26.34379 50.95331 11431 ft 338 kts 250°
2026-04-27 00:03 26.33490 50.92929 10726 ft 332 kts 253°
2026-04-27 00:03 26.33127 50.90435 10203 ft 322 kts 276°
2026-04-27 00:03 26.33638 50.88033 9863 ft 317 kts 294°
2026-04-27 00:03 26.34773 50.85949 9460 ft 314 kts 308°
2026-04-27 00:04 26.36281 50.84193 9064 ft 312 kts 319°
2026-04-27 00:04 26.38142 50.83069 8646 ft 308 kts 339°
2026-04-27 00:04 26.40093 50.82202 8241 ft 297 kts 322°
2026-04-27 00:04 26.41394 50.80455 7864 ft 294 kts 295°
2026-04-27 00:05 26.41908 50.78269 7481 ft 297 kts 271°
2026-04-27 00:05 26.41429 50.76000 7127 ft 307 kts 248°
2026-04-27 00:05 26.40290 50.73956 6765 ft 312 kts 236°
2026-04-27 00:05 26.38717 50.72331 6372 ft 317 kts 213°
2026-04-27 00:06 26.36543 50.71712 5970 ft 327 kts 181°
2026-04-27 00:06 26.34358 50.72398 5588 ft 332 kts 149°
2026-04-27 00:06 26.32763 50.74169 5235 ft 330 kts 118°
2026-04-27 00:06 26.32066 50.76533 4978 ft 313 kts 100°
2026-04-27 00:07 26.31498 50.78847 4741 ft 308 kts 108°
2026-04-27 00:07 26.30662 50.81037 4485 ft 304 kts 115°
2026-04-27 00:07 26.29649 50.83089 4249 ft 300 kts 119°
2026-04-27 00:07 26.28554 50.85065 4001 ft 296 kts 121°
2026-04-27 00:08 26.27461 50.86966 3755 ft 292 kts 121°
2026-04-27 00:08 26.26363 50.88862 3511 ft 289 kts 121°
2026-04-27 00:08 26.25309 50.90756 3274 ft 285 kts 119°
2026-04-27 00:08 26.24292 50.92639 3036 ft 282 kts 118°
2026-04-27 00:09 26.23300 50.94492 2792 ft 279 kts 118°
2026-04-27 00:09 26.22318 50.96353 2559 ft 277 kts 118°
2026-04-27 00:09 26.21359 50.98200 2318 ft 275 kts 117°
2026-04-27 00:09 26.20405 51.00044 2078 ft 274 kts 118°
2026-04-27 00:10 26.19417 51.01868 1846 ft 273 kts 119°
2026-04-27 00:10 26.18430 51.03664 1674 ft 269 kts 119°
2026-04-27 00:10 26.17331 51.05325 1603 ft 269 kts 135°
2026-04-27 00:10 26.15700 51.06388 1600 ft 278 kts 165°
2026-04-27 00:11 26.13780 51.06506 1579 ft 278 kts 193°
2026-04-27 00:11 26.11989 51.05785 1610 ft 273 kts 207°
2026-04-27 00:11 26.10282 51.04828 1606 ft 275 kts 209°
2026-04-27 00:11 26.08605 51.03836 1582 ft 274 kts 213°
2026-04-27 00:12 26.07227 51.02437 1591 ft 268 kts 240°
2026-04-27 00:12 26.06623 51.00546 1579 ft 255 kts 270°
2026-04-27 00:12 26.06940 50.98673 1603 ft 246 kts 297°
2026-04-27 00:12 26.07752 50.97003 1584 ft 245 kts 303°
2026-04-27 00:13 26.08640 50.95377 1588 ft 245 kts 304°
2026-04-27 00:13 26.09549 50.93781 1593 ft 244 kts 305°
2026-04-27 00:13 26.10468 50.92188 1586 ft 245 kts 305°
2026-04-27 00:13 26.11389 50.90596 1582 ft 245 kts 305°
2026-04-27 00:14 26.12315 50.88994 1581 ft 245 kts 305°
2026-04-27 00:14 26.13223 50.87420 1581 ft 245 kts 305°
2026-04-27 00:14 26.14156 50.85803 1575 ft 245 kts 304°
2026-04-27 00:14 26.15063 50.84229 1596 ft 245 kts 304°
2026-04-27 00:15 26.15973 50.82648 1567 ft 237 kts 305°
2026-04-27 00:15 26.16836 50.81149 1556 ft 223 kts 305°
2026-04-27 00:15 26.17643 50.79745 1550 ft 207 kts 306°
2026-04-27 00:15 26.18402 50.78430 1558 ft 200 kts 306°
2026-04-27 00:16 26.19143 50.77147 1555 ft 194 kts 306°
2026-04-27 00:16 26.19873 50.75881 1571 ft 194 kts 306°
2026-04-27 00:16 26.20593 50.74630 1586 ft 194 kts 306°
2026-04-27 00:16 26.21321 50.73366 1585 ft 194 kts 306°
2026-04-27 00:17 26.22050 50.72100 1528 ft 196 kts 306°
2026-04-27 00:17 26.22776 50.70838 1252 ft 188 kts 306°
2026-04-27 00:17 26.23459 50.69651 1005 ft 174 kts 306°
2026-04-27 00:17 26.24088 50.68558 770 ft 160 kts 305°
2026-04-27 00:18 26.24676 50.67538 607 ft 157 kts 304°
2026-04-27 00:18 26.25277 50.66506 398 ft 160 kts 303°
2026-04-27 00:18 26.25877 50.65463 182 ft 159 kts 302°
2026-04-27 00:18 26.26471 50.64428 29 ft 156 kts 302°
2026-04-27 00:19 26.26939 50.63614 17 ft 95 kts 303°
2026-04-27 00:19 26.27200 50.63161 18 ft 31 kts 303°
2026-04-27 00:19 26.27254 50.62949 19 ft 26 kts 273°
2026-04-27 00:19 26.27253 50.62893 20 ft 5 kts 262°
2026-04-27 00:20 26.27233 50.62858 21 ft 6 kts 212°
2026-04-27 00:20 26.27193 50.62865 21 ft 7 kts 149°
2026-04-27 00:20 26.27152 50.62895 20 ft 8 kts 156°
2026-04-27 00:20 26.27079 50.62871 20 ft 14 kts 240°
2026-04-27 00:21 26.27102 50.62772 19 ft 15 kts 301°
2026-04-27 00:21 26.27181 50.62657 19 ft 23 kts 331°
2026-04-27 00:21 26.27330 50.62594 19 ft 25 kts 309°
2026-04-27 00:21 26.27424 50.62434 26 ft 25 kts 302°
2026-04-27 00:22 26.27518 50.62274 19 ft 25 kts 304°
2026-04-27 00:22 26.27611 50.62113 19 ft 25 kts 303°
2026-04-27 00:22 26.27707 50.61954 19 ft 25 kts 303°
2026-04-27 00:22 26.27652 50.61798 19 ft 25 kts 205°
2026-04-27 00:23 26.27502 50.61723 20 ft 25 kts 238°
2026-04-27 00:23 26.27456 50.61618 19 ft 10 kts 245°
2026-04-27 00:23 26.27458 50.61562 19 ft 6 kts 317°
2026-04-27 00:23 26.27482 50.61547 19 ft 0 kts 330°
2026-04-27 00:28 26.23589 50.69423 956 ft 172 kts 306°
2026-04-27 00:28 26.24204 50.68357 747 ft 157 kts 305°
2026-04-27 00:28 26.24792 50.67337 574 ft 158 kts 303°
2026-04-27 00:29 26.25400 50.66294 367 ft 160 kts 303°
2026-04-27 00:29 26.25987 50.65268 146 ft 158 kts 302°
2026-04-27 00:29 26.26581 50.64237 22 ft 144 kts 302°
2026-04-27 00:29 26.27003 50.63503 18 ft 85 kts 303°
2026-04-27 00:30 26.26629 50.64153 22 ft 138 kts 302°
2026-04-27 00:30 26.26045 50.65166 126 ft 158 kts 302°
2026-04-27 00:30 26.26631 50.64149 22 ft 138 kts 302°
2026-04-27 00:30 26.26597 50.64208 23 ft 142 kts 302°